Satellite-Ground Cal/Val Site Overpasses Predictions

Prediction of Satellite NPP Overpassing Cal/Val Site: Antarctic Dome C

Ground Cal/Val Site Location: Latitude: -75.10, Longitude: 123.35; Satellite-Ground Site NADIR distance within 100 km.

Table of predicted overpasses for the next 14.0 days since TLE Epoch: 11/3/2011
Interval Starting Time Ending Time Minimum Distance Time Minimum Distance (km)
1 11/03/2011 14:56:07 11/03/2011 14:56:36 11/03/2011 14:56:21 22.87
2 11/04/2011 14:35:48 11/04/2011 14:35:57 11/04/2011 14:35:52 93.56
3 11/05/2011 07:36:11 11/05/2011 07:36:39 11/05/2011 07:36:25 27.33
4 11/06/2011 07:16:04 11/06/2011 07:16:15 11/06/2011 07:16:09 91.95
5 11/08/2011 14:55:22 11/08/2011 14:55:51 11/08/2011 14:55:37 18.71
6 11/09/2011 14:35:45 11/09/2011 14:35:54 11/09/2011 14:35:49 93.73
7 11/10/2011 07:36:37 11/10/2011 07:37:05 11/10/2011 07:36:51 29.90
8 11/11/2011 07:17:08 11/11/2011 07:17:23 11/11/2011 07:17:15 85.16
9 11/13/2011 14:58:03 11/13/2011 14:58:31 11/13/2011 14:58:17 34.54
10 11/14/2011 14:38:59 11/14/2011 14:39:18 11/14/2011 14:39:08 75.14
11 11/15/2011 07:40:26 11/15/2011 07:40:51 11/15/2011 07:40:39 51.78


NCC Satellite Cal/Val Overpasses Prediction Service
